Time,TemperatureF,DewpointF,PressureIn,WindDirection,WindDirectionDegrees,WindSpeedMPH,WindSpeedGustMPH,Humidity,HourlyPrecipIn,Conditions,Clouds,dailyrainin,SoftwareType,DateUTC
2013-01-21 00:13:00,36.0,31.0,-100.00,SW,236,1.0,1.0,81,0.00,,,-99.99,,2013-01-21 05:13:00,
2013-01-21 00:22:00,36.0,31.0,-100.00,SW,236,1.0,1.0,81,0.00,,,-99.99,,2013-01-21 05:22:00,
2013-01-21 00:34:00,36.0,31.0,-100.00,SW,229,1.0,1.0,82,0.00,,,-99.99,,2013-01-21 05:34:00,
2013-01-21 00:42:00,36.0,31.0,-100.00,SW,229,1.0,1.0,82,0.00,,,-99.99,,2013-01-21 05:42:00,
2013-01-21 00:53:00,35.0,31.0,-100.00,North,353,2.0,3.0,83,0.00,,,-99.99,,2013-01-21 05:53:00,
2013-01-21 01:03:00,35.0,31.0,-100.00,North,353,2.0,3.0,83,0.00,,,-99.99,,2013-01-21 06:03:00,
2013-01-21 01:13:00,35.0,30.0,-100.00,NNW,342,1.0,2.0,84,0.00,,,-99.99,,2013-01-21 06:13:00,
2013-01-21 01:23:00,35.0,30.0,-100.00,NNW,342,1.0,2.0,84,0.00,,,-99.99,,2013-01-21 06:23:00,
2013-01-21 01:33:00,35.0,31.0,-100.00,NW,315,1.0,2.0,85,0.00,,,-99.99,,2013-01-21 06:33:00,
2013-01-21 01:43:00,33.0,30.0,-100.00,WSW,241,0.0,0.0,87,0.00,,,-99.99,,2013-01-21 06:43:00,
2013-01-21 01:53:00,33.0,30.0,-100.00,WSW,241,0.0,0.0,87,0.00,,,-99.99,,2013-01-21 06:53:00,
2013-01-21 02:03:00,33.0,30.0,-100.00,SW,220,1.0,1.0,88,0.00,,,-99.99,,2013-01-21 07:03:00,
2013-01-21 02:13:00,33.0,30.0,-100.00,SW,220,1.0,1.0,88,0.00,,,-99.99,,2013-01-21 07:13:00,
2013-01-21 02:22:00,33.0,30.0,-100.00,SW,220,1.0,1.0,88,0.00,,,-99.99,,2013-01-21 07:22:00,
2013-01-21 02:33:00,33.0,30.0,-100.00,SW,230,2.0,2.0,89,0.00,,,-99.99,,2013-01-21 07:33:00,
2013-01-21 02:42:00,33.0,30.0,-100.00,SW,230,2.0,2.0,89,0.00,,,-99.99,,2013-01-21 07:42:00,
2013-01-21 02:53:00,33.0,29.0,-100.00,SW,223,1.0,1.0,88,0.00,,,-99.99,,2013-01-21 07:53:00,
2013-01-21 03:03:00,33.0,29.0,-100.00,SW,223,1.0,1.0,88,0.00,,,-99.99,,2013-01-21 08:03:00,
2013-01-21 03:14:00,32.0,29.0,-100.00,SW,229,2.0,2.0,90,0.00,,,-99.99,,2013-01-21 08:14:00,
2013-01-21 03:23:00,32.0,29.0,-100.00,SW,229,2.0,2.0,90,0.00,,,-99.99,,2013-01-21 08:23:00,
2013-01-21 03:33:00,32.0,29.0,-100.00,SW,229,2.0,2.0,91,0.00,,,-99.99,,2013-01-21 08:33:00,
2013-01-21 03:43:00,32.0,29.0,-100.00,SW,229,2.0,2.0,91,0.00,,,-99.99,,2013-01-21 08:43:00,
2013-01-21 03:53:00,32.0,30.0,-100.00,SW,223,0.0,1.0,93,0.00,,,-99.99,,2013-01-21 08:53:00,
2013-01-21 04:03:00,32.0,30.0,-100.00,SW,223,0.0,1.0,93,0.00,,,-99.99,,2013-01-21 09:03:00,
2013-01-21 04:13:00,31.0,30.0,-100.00,SW,223,1.0,2.0,93,0.00,,,-99.99,,2013-01-21 09:13:00,
2013-01-21 04:23:00,31.0,30.0,-100.00,SW,223,1.0,2.0,93,0.00,,,-99.99,,2013-01-21 09:23:00,
2013-01-21 04:33:00,31.0,29.0,-100.00,SW,226,1.0,2.0,93,0.00,,,-99.99,,2013-01-21 09:33:00,
2013-01-21 04:42:00,31.0,29.0,-100.00,SW,226,1.0,2.0,93,0.00,,,-99.99,,2013-01-21 09:42:00,
2013-01-21 04:53:00,31.0,30.0,-100.00,SW,223,1.0,2.0,94,0.00,,,-99.99,,2013-01-21 09:53:00,
2013-01-21 05:02:00,31.0,30.0,-100.00,SW,223,1.0,2.0,94,0.00,,,-99.99,,2013-01-21 10:02:00,
2013-01-21 05:12:00,31.0,29.0,-100.00,SW,227,2.0,2.0,95,0.00,,,-99.99,,2013-01-21 10:12:00,
2013-01-21 05:22:00,30.0,29.0,-100.00,SW,224,1.0,2.0,96,0.00,,,-99.99,,2013-01-21 10:22:00,
2013-01-21 05:33:00,30.0,29.0,-100.00,SW,224,1.0,2.0,96,0.00,,,-99.99,,2013-01-21 10:33:00,
2013-01-21 05:43:00,30.0,29.0,-100.00,SW,224,1.0,2.0,96,0.00,,,-99.99,,2013-01-21 10:43:00,
2013-01-21 05:53:00,30.0,29.0,-100.00,SW,230,2.0,2.0,96,0.00,,,-99.99,,2013-01-21 10:53:00,
2013-01-21 06:03:00,30.0,29.0,-100.00,SW,230,2.0,2.0,96,0.00,,,-99.99,,2013-01-21 11:03:00,
2013-01-21 06:13:00,30.0,29.0,-100.00,SW,232,2.0,2.0,96,0.00,,,-99.99,,2013-01-21 11:13:00,
2013-01-21 06:23:00,30.0,29.0,-100.00,SW,232,2.0,2.0,96,0.00,,,-99.99,,2013-01-21 11:23:00,
2013-01-21 06:33:00,30.0,29.0,-100.00,SW,232,2.0,2.0,97,0.00,,,-99.99,,2013-01-21 11:33:00,
2013-01-21 06:43:00,30.0,29.0,-100.00,SW,232,2.0,2.0,97,0.00,,,-99.99,,2013-01-21 11:43:00,
2013-01-21 06:53:00,30.0,29.0,-100.00,SW,230,2.0,3.0,96,0.00,,,-99.99,,2013-01-21 11:53:00,
2013-01-21 07:03:00,30.0,29.0,-100.00,SW,230,2.0,3.0,96,0.00,,,-99.99,,2013-01-21 12:03:00,
2013-01-21 07:12:00,29.0,29.0,-100.00,SW,227,2.0,3.0,97,0.00,,,-99.99,,2013-01-21 12:12:00,
2013-01-21 07:22:00,29.0,29.0,-100.00,SW,227,2.0,3.0,97,0.00,,,-99.99,,2013-01-21 12:22:00,
2013-01-21 07:33:00,29.0,29.0,-100.00,SW,227,2.0,2.0,97,0.00,,,-99.99,,2013-01-21 12:33:00,
2013-01-21 07:42:00,29.0,29.0,-100.00,SW,227,2.0,2.0,97,0.00,,,-99.99,,2013-01-21 12:42:00,
2013-01-21 07:53:00,29.0,29.0,-100.00,SW,227,2.0,2.0,97,0.00,,,-99.99,,2013-01-21 12:53:00,
2013-01-21 08:03:00,29.0,28.0,-100.00,SW,223,1.0,2.0,97,0.00,,,-99.99,,2013-01-21 13:03:00,
2013-01-21 08:13:00,29.0,29.0,-100.00,SW,230,2.0,3.0,98,0.00,,,-99.99,,2013-01-21 13:13:00,
2013-01-21 08:23:00,29.0,29.0,-100.00,SW,230,2.0,3.0,98,0.00,,,-99.99,,2013-01-21 13:23:00,
2013-01-21 08:33:00,29.0,29.0,-100.00,SW,230,2.0,3.0,98,0.00,,,-99.99,,2013-01-21 13:33:00,
2013-01-21 08:43:00,29.0,29.0,-100.00,SW,230,2.0,3.0,98,0.00,,,-99.99,,2013-01-21 13:43:00,
2013-01-21 08:54:00,30.0,29.0,-100.00,SW,224,1.0,1.0,98,0.00,,,-99.99,,2013-01-21 13:54:00,
2013-01-21 09:03:00,30.0,29.0,-100.00,SW,224,1.0,1.0,98,0.00,,,-99.99,,2013-01-21 14:03:00,
2013-01-21 09:13:00,31.0,31.0,-100.00,SW,223,0.0,1.0,98,0.00,,,-99.99,,2013-01-21 14:13:00,
2013-01-21 09:23:00,31.0,31.0,-100.00,SW,223,0.0,1.0,98,0.00,,,-99.99,,2013-01-21 14:23:00,
2013-01-21 09:33:00,33.0,33.0,-100.00,SW,223,1.0,2.0,98,0.00,,,-99.99,,2013-01-21 14:33:00,
2013-01-21 09:40:00,38.0,36.0,-100.00,SSE,148,2.0,3.0,90,0.00,,,-99.99,,2013-01-21 14:40:00,
2013-01-21 09:43:00,33.0,33.0,-100.00,SW,223,1.0,2.0,98,0.00,,,-99.99,,2013-01-21 14:43:00,
2013-01-21 09:54:00,36.0,35.0,-100.00,SSW,200,1.0,2.0,95,0.00,,,-99.99,,2013-01-21 14:54:00,
2013-01-21 10:03:00,36.0,35.0,-100.00,SSW,200,1.0,2.0,95,0.00,,,-99.99,,2013-01-21 15:03:00,
2013-01-21 10:13:00,38.0,36.0,-100.00,SSE,148,2.0,3.0,90,0.00,,,-99.99,,2013-01-21 15:13:00,
2013-01-21 10:23:00,38.0,36.0,-100.00,SSE,148,2.0,3.0,90,0.00,,,-99.99,,2013-01-21 15:23:00,
2013-01-21 10:33:00,38.0,36.0,-100.00,SSE,148,2.0,3.0,90,0.00,,,-99.99,,2013-01-21 15:33:00,
2013-01-21 10:53:00,41.0,31.0,-100.00,SE,131,2.0,4.0,68,0.00,,,-99.99,,2013-01-21 15:53:00,
2013-01-21 11:04:00,41.0,31.0,-100.00,SE,131,2.0,4.0,68,0.00,,,-99.99,,2013-01-21 16:04:00,
2013-01-21 11:13:00,44.0,32.0,-100.00,ESE,123,2.0,4.0,63,0.00,,,-99.99,,2013-01-21 16:13:00,
2013-01-21 11:23:00,44.0,32.0,-100.00,ESE,123,2.0,4.0,63,0.00,,,-99.99,,2013-01-21 16:23:00,
2013-01-21 11:33:00,44.0,34.0,-100.00,SE,126,2.0,3.0,67,0.00,,,-99.99,,2013-01-21 16:33:00,
2013-01-21 11:43:00,44.0,34.0,-100.00,SE,126,2.0,3.0,67,0.00,,,-99.99,,2013-01-21 16:43:00,
2013-01-21 11:53:00,45.0,33.0,-100.00,SE,144,2.0,7.0,61,0.00,,,-99.99,,2013-01-21 16:53:00,
2013-01-21 12:03:00,45.0,33.0,-100.00,SE,144,2.0,7.0,61,0.00,,,-99.99,,2013-01-21 17:03:00,
2013-01-21 12:13:00,49.0,29.0,-100.00,SSE,168,2.0,3.0,45,0.00,,,-99.99,,2013-01-21 17:13:00,
2013-01-21 12:23:00,49.0,29.0,-100.00,SSE,168,2.0,3.0,45,0.00,,,-99.99,,2013-01-21 17:23:00,
2013-01-21 12:33:00,50.0,28.0,-100.00,SE,133,1.0,2.0,42,0.00,,,-99.99,,2013-01-21 17:33:00,
2013-01-21 12:43:00,50.0,28.0,-100.00,SE,133,1.0,2.0,42,0.00,,,-99.99,,2013-01-21 17:43:00,
2013-01-21 12:53:00,52.0,30.0,-100.00,South,169,2.0,3.0,43,0.00,,,-99.99,,2013-01-21 17:53:00,
2013-01-21 13:03:00,52.0,30.0,-100.00,South,169,2.0,3.0,43,0.00,,,-99.99,,2013-01-21 18:03:00,
2013-01-21 13:12:00,52.0,25.0,-100.00,SSW,209,3.0,6.0,34,0.00,,,-99.99,,2013-01-21 18:12:00,
2013-01-21 13:23:00,52.0,25.0,-100.00,SSW,209,3.0,6.0,34,0.00,,,-99.99,,2013-01-21 18:23:00,
2013-01-21 13:33:00,54.0,21.0,-100.00,West,278,5.0,10.0,27,0.00,,,-99.99,,2013-01-21 18:33:00,
2013-01-21 13:43:00,54.0,21.0,-100.00,West,278,5.0,10.0,27,0.00,,,-99.99,,2013-01-21 18:43:00,
2013-01-21 13:53:00,54.0,24.0,-100.00,SW,220,5.0,9.0,30,0.00,,,-99.99,,2013-01-21 18:53:00,
2013-01-21 14:03:00,54.0,24.0,-100.00,SW,220,5.0,9.0,30,0.00,,,-99.99,,2013-01-21 19:03:00,
2013-01-21 14:13:00,55.0,23.0,-100.00,SW,215,5.0,8.0,28,0.00,,,-99.99,,2013-01-21 19:13:00,
2013-01-21 14:22:00,55.0,23.0,-100.00,SW,215,5.0,8.0,28,0.00,,,-99.99,,2013-01-21 19:22:00,
2013-01-21 14:33:00,56.0,23.0,-100.00,SW,227,5.0,11.0,28,0.00,,,-99.99,,2013-01-21 19:33:00,
2013-01-21 14:43:00,56.0,23.0,-100.00,SW,227,5.0,11.0,28,0.00,,,-99.99,,2013-01-21 19:43:00,
2013-01-21 14:53:00,57.0,24.0,-100.00,WSW,251,6.0,9.0,28,0.00,,,-99.99,,2013-01-21 19:53:00,
2013-01-21 15:00:00,57.0,24.0,-100.00,WSW,251,10.0,16.0,28,0.00,,,-99.99,,2013-01-21 20:00:00,
2013-01-21 15:03:00,57.0,24.0,-100.00,WSW,251,6.0,9.0,28,0.00,,,-99.99,,2013-01-21 20:03:00,
2013-01-21 15:12:00,57.0,25.0,-100.00,West,261,7.0,10.0,28,0.00,,,-99.99,,2013-01-21 20:12:00,
2013-01-21 15:23:00,57.0,25.0,-100.00,West,261,7.0,10.0,28,0.00,,,-99.99,,2013-01-21 20:23:00,
2013-01-21 15:33:00,57.0,24.0,-100.00,WSW,251,10.0,16.0,28,0.00,,,-99.99,,2013-01-21 20:33:00,
2013-01-21 15:43:00,57.0,24.0,-100.00,WSW,251,10.0,16.0,28,0.00,,,-99.99,,2013-01-21 20:43:00,
2013-01-21 15:53:00,57.0,24.0,-100.00,WSW,251,10.0,16.0,28,0.00,,,-99.99,,2013-01-21 20:53:00,
2013-01-21 16:12:00,58.0,25.0,-100.00,WSW,250,10.0,13.0,28,0.00,,,-99.99,,2013-01-21 21:12:00,
2013-01-21 16:20:00,58.0,26.0,-100.00,WSW,258,9.0,12.0,29,0.00,,,-99.99,,2013-01-21 21:20:00,
2013-01-21 16:23:00,58.0,25.0,-100.00,WSW,250,10.0,13.0,28,0.00,,,-99.99,,2013-01-21 21:23:00,
2013-01-21 16:33:00,58.0,25.0,-100.00,West,261,11.0,15.0,29,0.00,,,-99.99,,2013-01-21 21:33:00,
2013-01-21 16:43:00,58.0,25.0,-100.00,West,261,11.0,15.0,29,0.00,,,-99.99,,2013-01-21 21:43:00,
2013-01-21 16:54:00,58.0,26.0,-100.00,WSW,258,9.0,12.0,29,0.00,,,-99.99,,2013-01-21 21:54:00,
2013-01-21 17:03:00,58.0,26.0,-100.00,WSW,258,9.0,12.0,29,0.00,,,-99.99,,2013-01-21 22:03:00,
2013-01-21 17:13:00,58.0,26.0,-100.00,WSW,258,9.0,12.0,29,0.00,,,-99.99,,2013-01-21 22:13:00,
2013-01-21 18:13:00,54.0,26.0,-100.00,WSW,251,5.0,6.0,33,0.00,,,-99.99,,2013-01-21 23:13:00,
2013-01-21 18:23:00,54.0,26.0,-100.00,WSW,251,5.0,6.0,33,0.00,,,-99.99,,2013-01-21 23:23:00,
2013-01-21 18:33:00,53.0,26.0,-100.00,WSW,248,5.0,8.0,35,0.00,,,-99.99,,2013-01-21 23:33:00,
2013-01-21 18:42:00,53.0,26.0,-100.00,WSW,248,5.0,8.0,35,0.00,,,-99.99,,2013-01-21 23:42:00,
2013-01-21 18:53:00,52.0,27.0,-100.00,WSW,257,6.0,9.0,37,0.00,,,-99.99,,2013-01-21 23:53:00,
2013-01-21 19:03:00,52.0,27.0,-100.00,WSW,257,6.0,9.0,37,0.00,,,-99.99,,2013-01-22 00:03:00,
2013-01-21 19:12:00,52.0,28.0,-100.00,West,260,4.0,7.0,39,0.00,,,-99.99,,2013-01-22 00:12:00,
2013-01-21 19:23:00,52.0,28.0,-100.00,West,260,4.0,7.0,39,0.00,,,-99.99,,2013-01-22 00:23:00,
2013-01-21 19:33:00,53.0,24.0,-100.00,WNW,296,10.0,19.0,32,0.00,,,-99.99,,2013-01-22 00:33:00,
2013-01-21 19:43:00,53.0,24.0,-100.00,WNW,296,10.0,19.0,32,0.00,,,-99.99,,2013-01-22 00:43:00,
2013-01-21 19:53:00,52.0,22.0,-100.00,NW,305,8.0,13.0,30,0.00,,,-99.99,,2013-01-22 00:53:00,
2013-01-21 20:02:00,52.0,22.0,-100.00,NW,305,8.0,13.0,30,0.00,,,-99.99,,2013-01-22 01:02:00,
2013-01-21 20:12:00,50.0,19.0,-100.00,NW,304,7.0,12.0,29,0.00,,,-99.99,,2013-01-22 01:12:00,
2013-01-21 20:23:00,50.0,19.0,-100.00,NW,304,7.0,12.0,29,0.00,,,-99.99,,2013-01-22 01:23:00,
2013-01-21 20:33:00,49.0,18.0,-100.00,NW,309,10.0,18.0,29,0.00,,,-99.99,,2013-01-22 01:33:00,
2013-01-21 20:43:00,49.0,18.0,-100.00,NW,309,10.0,18.0,29,0.00,,,-99.99,,2013-01-22 01:43:00,
2013-01-21 20:53:00,48.0,16.0,-100.00,NW,312,11.0,17.0,27,0.00,,,-99.99,,2013-01-22 01:53:00,
2013-01-21 21:03:00,48.0,16.0,-100.00,NW,312,11.0,17.0,27,0.00,,,-99.99,,2013-01-22 02:03:00,
2013-01-21 21:12:00,47.0,14.0,-100.00,WNW,291,5.0,10.0,25,0.00,,,-99.99,,2013-01-22 02:12:00,
2013-01-21 21:23:00,47.0,14.0,-100.00,WNW,291,5.0,10.0,25,0.00,,,-99.99,,2013-01-22 02:23:00,
2013-01-21 21:33:00,47.0,11.0,-100.00,WNW,301,9.0,16.0,24,0.00,,,-99.99,,2013-01-22 02:33:00,
2013-01-21 21:43:00,47.0,11.0,-100.00,WNW,301,9.0,16.0,24,0.00,,,-99.99,,2013-01-22 02:43:00,
2013-01-21 21:53:00,46.0,11.0,-100.00,NW,305,7.0,11.0,24,0.00,,,-99.99,,2013-01-22 02:53:00,
2013-01-21 22:03:00,46.0,11.0,-100.00,NW,305,7.0,11.0,24,0.00,,,-99.99,,2013-01-22 03:03:00,
2013-01-21 22:12:00,45.0,11.0,-100.00,WNW,301,6.0,8.0,25,0.00,,,-99.99,,2013-01-22 03:12:00,
2013-01-21 22:22:00,45.0,11.0,-100.00,WNW,301,6.0,8.0,25,0.00,,,-99.99,,2013-01-22 03:22:00,
2013-01-21 22:33:00,44.0,13.0,-100.00,WNW,302,4.0,6.0,29,0.00,,,-99.99,,2013-01-22 03:33:00,
2013-01-21 22:42:00,44.0,13.0,-100.00,WNW,302,4.0,6.0,29,0.00,,,-99.99,,2013-01-22 03:42:00,
2013-01-21 22:53:00,43.0,13.0,-100.00,NW,311,2.0,5.0,30,0.00,,,-99.99,,2013-01-22 03:53:00,
2013-01-21 23:03:00,43.0,13.0,-100.00,NW,311,2.0,5.0,30,0.00,,,-99.99,,2013-01-22 04:03:00,
2013-01-21 23:12:00,42.0,12.0,-100.00,NW,316,4.0,7.0,29,0.00,,,-99.99,,2013-01-22 04:12:00,
2013-01-21 23:22:00,42.0,12.0,-100.00,NW,316,4.0,7.0,29,0.00,,,-99.99,,2013-01-22 04:22:00,
2013-01-21 23:33:00,43.0,13.0,-100.00,NNW,340,7.0,12.0,29,0.00,,,-99.99,,2013-01-22 04:33:00,
2013-01-21 23:42:00,43.0,13.0,-100.00,NNW,340,7.0,12.0,29,0.00,,,-99.99,,2013-01-22 04:42:00,
2013-01-21 23:53:00,43.0,11.0,-100.00,WNW,298,8.0,14.0,26,0.00,,,-99.99,,2013-01-22 04:53:00,